Showing default

LEMUR 2 DEMBITZ, 42842

Orbit data source: Space-Track

LEMUR 2 DEMBITZ, 42842 is a payload satellite owned by Spire (US) in SSO that was launched on Fri, 14 Jul 2017 UTC via a SOYUZ-2-1A launch vehicle from the Tyuratam Missile And Space Complex (TTMTR). Payload-class satellites include a variety of spacecraft equipped with specific instruments for various scientific and technological missions. These include communications satellites like Starlink; space stations such as the ISS; scientific satellites like the Hubble; Earth observation satellites from companies like Planet Labs, Umbra, and HawkEye 360; GPS; miniature CubeSats for education and research; and military/defense satellites.

Loading next visibility...
Identifier
42842, 2017-042T
Orbit
SSO
Country
Flag of USUS
Related business
Manufacturer
Spire/Glasgow
Mission
Operational Commercial Com/MetRO
Bus & Motor
CUBESAT 3U, Unknown motor
Mass
4 kg wet, 4 kg dry
Launch date (UTC)
2017-07-14 (9 years ago)
Launch vehicle
SOYUZ-2-1A
Launch site
Tyuratam Missile And Space Complex (TTMTR)
Object type
Payload
Rocket body
Debris
Shape & HBR
Box, 0.5 m
Radar Cross Section
0.093 m², Small (<0.1 m²)

Expand to show TLE details & history
Last TLE update: 10 hours ago

TLE from 10 hours ago
0 LEMUR 2 DEMBITZ
1 42842U 17042T   26119.49193357  .00016168  00000-0  57960-3 0  9996
2 42842  97.3817 301.4511 0007134 179.7306 180.3939 15.28779813480905
Epoch: 2026-04-29T11:48Z
TLE epoch observation values (Epoch: 2026-04-29T11:48:23.060Z)
Latitude
-0.00003°
Longitude
-93.0971°
Altitude
487.455 km
Speed
7.619 km/s
True Right ascension
20h 05m 48s
True Declination
0° 00' 00"
Sunlit
Object was in daylight at epoch
Visualization orbit readout
Latitude
Unknown
Longitude
Unknown
Altitude
Unknown
Speed
Unknown
Apparent Right ascension
Unknown
Apparent Declination
Unknown
Sunlit
N/A
Visualization observer readout
Local Sidereal Time
05:38:24
Azimuth
Unknown
Elevation
Unknown
Doppler factor
Unknown
Orbital elements
Apogee altitude
481.302 km
Perigee altitude
471.522 km
Semi-major axis
6,854.549 km
Eccentricity
0.00071
Inclination
97.3817°
RAAN
301.4511°
Arg. of periapsis
179.7306°
True anomaly
180.39334°
Mean anomaly
180.3939°
Eccentric anomaly
180.39362°
Mean motion
3.8245 °/min
Orbital period
94.13 mins
BSTAR
0.0005796
Loading maneuver chart data...
Computing Atmospheric mass density...
Loading historical data...
Loading historical data...
Loading historical data...
Loading historical data...
Loading historical data...
Loading historical data...
Loading historical data...

Documentation

Showing up to 5 results
|